Home   Weather   Samarkand   Past weeks

Flag for Uzbekistan Past Weather in Samarkand, Uzbekistan — Yesterday and Last 2 Weeks

Now
32 °F

Passing clouds.


Feels Like: 29 °F
Forecast: 22 / 39 °F
Wind: 3 mph from Northwest

Location: Samarkand

Current Time: Jan 24, 2017 at 2:21:55 pm

Latest Report: Jan 24, 2017 at 1:30 pm


Visibility: N/A

Pressure: 30.51 "Hg (27.88 "Hg at 721m altitude)

Humidity: 60%

Dew Point: 19 °F

Location of SamarkandLocation

Past Weather in Samarkand — Graph

°F

Samarkand Temperature Yesterday

Maximum temperature yesterday: 41 °F (at 12:00 am)
Minimum temperature yesterday: 30 °F (at 11:00 pm)
Average temperature yesterday: 36 °F

High & Low Weather Summary for the Past Weeks

 TemperatureHumidityPressure
High57 °F (Jan 20, 1:00 pm)100% (Jan 12, 11:00 am)30.54 "Hg (Jan 12, 11:00 am)
Low23 °F (Jan 10, 5:30 am)17% (Jan 20, 1:00 pm)30.01 "Hg (Jan 14, 12:00 am)
Average36 °F72%30.20 "Hg
* Reported Jan 9 12:00 pm — Jan 24 12:30 pm, Samarkand, Weather by CustomWeather, © 2017

Note: Actual official high and low records may vary slightly from our data, if they occured in-between our weather recording intervals... More about our weather records

Advertising

Samarkand Weather History for the Previous 24 Hours

Scroll right to see more
 ConditionsComfort  
Time TempWeatherWind HumidityBarometerVisibility
12:30 pm
Tue, Jan 24
30 °FPartly sunny.2 mph64%30.51 "HgN/A
12:00 pm28 °FPartly sunny.7 mph69%30.54 "HgN/A
11:30 am28 °FPartly sunny.6 mph69%30.54 "HgN/A
11:00 am27 °FOvercast.6 mph74%30.51 "HgN/A
10:30 am27 °FOvercast.6 mph74%30.51 "HgN/A
10:00 am27 °FPartly sunny.3 mph74%30.51 "HgN/A
9:30 am27 °FScattered clouds.3 mph74%30.48 "HgN/A
9:00 am27 °FPassing clouds.2 mph74%30.48 "HgN/A
8:30 am25 °FPassing clouds.2 mph74%30.48 "HgN/A
8:00 am23 °FPassing clouds.2 mph80%30.45 "HgN/A
7:30 am23 °FClear.1 mph86%30.45 "Hg4 mi
7:00 am23 °FClear.1 mph86%30.42 "Hg4 mi
6:30 am23 °FClear.5 mph86%30.42 "Hg4 mi
6:00 am25 °FClear.3 mph80%30.39 "Hg4 mi
5:00 am27 °FClear.7 mph74%30.39 "Hg4 mi
4:30 am27 °FClear.7 mph74%30.39 "Hg4 mi
4:00 am27 °FPassing clouds.6 mph80%30.39 "Hg4 mi
3:30 am27 °FPassing clouds.7 mph80%30.39 "Hg4 mi
3:00 am28 °FMixture of precip. Overcast.N/A80%30.39 "HgN/A
2:30 am28 °FOvercast.10 mph80%30.39 "Hg4 mi
2:00 am28 °FOvercast.12 mph80%30.36 "Hg4 mi
1:30 am30 °FOvercast.10 mph75%30.36 "Hg4 mi
1:00 am30 °FOvercast.10 mph80%30.36 "Hg4 mi
12:30 am30 °FOvercast.10 mph80%30.36 "Hg4 mi
12:00 am30 °FOvercast.12 mph80%30.33 "Hg4 mi
11:30 pm
Mon, Jan 23
30 °FOvercast.9 mph86%30.33 "Hg4 mi
11:00 pm30 °FPassing clouds.12 mph86%30.33 "Hg4 mi
10:30 pm32 °FPassing clouds.9 mph87%30.30 "Hg4 mi
10:00 pm32 °FPassing clouds.5 mph87%30.30 "Hg4 mi
9:30 pm32 °FIce fog.6 mph93%30.27 "Hg3 mi
9:00 pm34 °FFog.7 mph87%30.27 "Hg2 mi
8:30 pm34 °FFog.6 mph87%30.27 "Hg2 mi
8:00 pm32 °FIce fog.2 mph93%30.27 "Hg2 mi
7:30 pm34 °FFog.2 mph87%30.27 "Hg2 mi
7:00 pm34 °FFog.3 mph87%30.24 "Hg3 mi
6:30 pm34 °FFog.6 mph87%30.24 "Hg3 mi
6:00 pm34 °FFog.5 mph87%30.24 "Hg3 mi
5:30 pm36 °FFog.5 mph81%30.24 "Hg3 mi
5:00 pm36 °FFog.7 mph81%30.24 "Hg3 mi
4:30 pm36 °FFog.8 mph87%30.24 "Hg3 mi
4:00 pm36 °FFog.7 mph87%30.24 "Hg3 mi
3:30 pm36 °FFog.8 mph87%30.21 "Hg3 mi
3:00 pm37 °FFog.9 mph87%30.21 "Hg2 mi
2:30 pm37 °FFog.7 mph87%30.21 "Hg2 mi
2:00 pm37 °FFog.1 mph87%30.21 "Hg3 mi
Weather by CustomWeather, © 2017

See weather overviewHow to use our weather pages